FOX-1B (AO-91) (43017 NORAD) Tracking and Keplerian Element Data.

This shows tracking and keplerian element data for the satellite.

Feedback or suggestion? Click here.

NameFOX-1B (AO-91)
Epoch Orbit1820
Epoch Day80.8126585
Epoch Year2018
Argument of Perigee195.7323
Mean Anonmoly163.5708
Mean Motion14.77946738
Decay Rate5.67E-06
L11 43017U 17073E 18080.81265850 .00000567 00000-0 50298-4 0 9991
L22 43017 97.7025 15.6230 0259774 195.7323 163.5708 14.77946738 18205

Live tracking and technical data element details for FOX-1B (AO-91) (NORAD 43017). FOX-1B (AO-91) can be tracked NOW for your location showing map with azimuth and elevation plus other details from your city location.

Tracking and technical details about the satellite: track the satellite on the map from your city or location and see movement details for azimuth, elevation, latitude, longitude, range, height, and movement on the map or in text.

Es'hailsat 2 (coming in 2018)

IsCatalogInMostPopularTable: catalog: 43017, numindb: 99
Update: records affected: 1

GetName: 43017 FOX-1B (AO-91)

Hit Count: updated at: Thu, 22 Mar 2018 13:40:59 GMT